Swanton, VT

5:05 AM EST on December 09, 2016 (GMT -0500)
Franklin County State

Weather History for KFSO - October, 2011

Change the Weather History Date:

Monday, October 3, 2011

  Actual Average (KPBG) Record (KPBG)
Temperature  
Mean Temperature 54 °F -  
Max Temperature 59 °F 63 °F 85 °F (1967)
Min Temperature 48 °F 44 °F 34 °F (1975)
Degree Days  
Heating Degree Days 12    
Growing Degree Days 4 (Base 50)    
Moisture  
Dew Point 52 °F    
Average Humidity 97    
Maximum Humidity 100    
Minimum Humidity 88    
Precipitation  
Precipitation 0.00 in - - ()
Sea Level Pressure  
Sea Level Pressure 30.02 in    
Wind  
Wind Speed 1 mph (North)    
Max Wind Speed 5 mph    
Max Gust Speed -    
Visibility 7 miles    
Events Fog    
Averages and records for this station are not official NWS values.
T = Trace of Precipitation, MM = Missing Value Source: NWS Daily Summary

Daily Weather History Graph

Daily Weather History Graph

Search for Another Location

Airport or City:

Trip Planner

Search our weather history database for the weather conditions in past years. The results will help you decide how hot, cold, wet, or windy it might be!

Date:

Astronomy

Oct. 03, 2011 Rise Set
Actual Time 6:52 AM EDT 6:29 PM EDT
Civil Twilight 6:23 AM EDT 6:58 PM EDT
Nautical Twilight 5:49 AM EDT 7:32 PM EDT
Astronomical Twilight 5:14 AM EDT 8:07 PM EDT
Moon 2:02 PM EDT (10/3) 11:16 PM EDT (10/3)
Length of Visible Light 12h 35m
Length of Day
11h 37m
Waxing Crescent, 45% of the Moon is Illuminated
Oct 3
Waxing Crescent
Oct 3
First Quarter
Oct 11
Full
Oct 19
Last Quarter
Oct 26
New

Hourly Weather History & Observations

Time (EDT) Temp. Dew Point Humidity Pressure Visibility Wind Dir Wind Speed Gust Speed Precip Events Conditions
12:37 AM 48.2 °F 48.2 °F 100% 29.94 in 5.0 mi North 3.5 mph - N/A   Overcast
12:57 AM 48.2 °F 48.2 °F 100% 29.95 in 7.0 mi Calm Calm - N/A   Overcast
1:37 AM 48.2 °F 48.2 °F 100% 29.95 in 7.0 mi Calm Calm - N/A   Overcast
1:57 AM 48.2 °F 48.2 °F 100% 29.94 in 7.0 mi Calm Calm - N/A   Overcast
2:17 AM 48.2 °F 48.2 °F 100% 29.94 in 7.0 mi Calm Calm - N/A   Overcast
2:37 AM 50.0 °F 50.0 °F 100% 29.94 in 10.0 mi Calm Calm - N/A   Overcast
2:57 AM 50.0 °F 50.0 °F 100% 29.94 in 7.0 mi Calm Calm - N/A   Overcast
3:17 AM 50.0 °F 50.0 °F 100% 29.94 in 7.0 mi Calm Calm - N/A   Overcast
3:37 AM 50.0 °F 50.0 °F 100% 29.95 in 7.0 mi Calm Calm - N/A   Overcast
4:17 AM 50.0 °F 50.0 °F 100% 29.96 in 7.0 mi Calm Calm - N/A   Overcast
4:37 AM 50.0 °F 50.0 °F 100% 29.96 in 7.0 mi Calm Calm - N/A   Overcast
4:57 AM 50.0 °F 50.0 °F 100% 29.97 in 3.0 mi Calm Calm - N/A   Overcast
5:17 AM 50.0 °F 50.0 °F 100% 29.97 in 1.5 mi Calm Calm - N/A   Overcast
5:37 AM 50.0 °F 50.0 °F 100% 29.98 in 1.0 mi Calm Calm - N/A   Overcast
5:57 AM 50.0 °F 50.0 °F 100% 29.98 in 0.5 mi Calm Calm - N/A Fog Fog
6:17 AM 50.0 °F 50.0 °F 100% 29.99 in 0.5 mi Calm Calm - N/A Fog Fog
6:37 AM 50.0 °F 50.0 °F 100% 30.00 in 0.8 mi Calm Calm - N/A   Overcast
6:57 AM 50.0 °F 50.0 °F 100% 30.00 in 0.8 mi Calm Calm - N/A   Overcast
7:17 AM 50.0 °F 50.0 °F 100% 30.00 in 0.2 mi Calm Calm - N/A Fog Fog
7:37 AM 50.0 °F 50.0 °F 100% 30.01 in 0.2 mi Calm Calm - N/A Fog Fog
7:57 AM 50.0 °F 50.0 °F 100% 30.01 in 0.2 mi Calm Calm - N/A Fog Fog
8:17 AM 51.8 °F 51.8 °F 100% 30.02 in 0.8 mi Calm Calm - N/A   Overcast
8:37 AM 51.8 °F 51.8 °F 100% 30.02 in 1.0 mi Calm Calm - N/A   Overcast
8:57 AM 51.8 °F 51.8 °F 100% 30.03 in 0.5 mi Calm Calm - N/A Fog Fog
9:17 AM 51.8 °F 51.8 °F 100% 30.03 in 0.8 mi Calm Calm - N/A   Overcast
9:37 AM 51.8 °F 51.8 °F 100% 30.05 in 1.2 mi Calm Calm - N/A   Overcast
10:18 AM 53.6 °F 53.6 °F 100% 30.05 in 0.8 mi North 4.6 mph - N/A   Overcast
10:37 AM 53.6 °F 53.6 °F 100% 30.04 in 7.0 mi NNW 3.5 mph - N/A   Overcast
10:57 AM 53.6 °F 53.6 °F 100% 30.05 in 10.0 mi NNE 4.6 mph - N/A   Overcast
11:17 AM 53.6 °F 53.6 °F 100% 30.06 in 10.0 mi North 3.5 mph - N/A   Overcast
11:37 AM 53.6 °F 53.6 °F 100% 30.06 in 7.0 mi Calm Calm - N/A   Overcast
11:57 AM 53.6 °F 53.6 °F 100% 30.05 in 7.0 mi North 3.5 mph - N/A   Overcast
12:18 PM 53.6 °F 53.6 °F 100% 30.06 in 10.0 mi Calm Calm - N/A   Overcast
12:37 PM 53.6 °F 53.6 °F 100% 30.05 in 10.0 mi North 3.5 mph - N/A   Overcast
12:57 PM 53.6 °F 53.6 °F 100% 30.05 in 10.0 mi North 4.6 mph - N/A   Overcast
1:17 PM 53.6 °F 51.8 °F 94% 30.06 in 10.0 mi Calm Calm - N/A   Overcast
1:37 PM 53.6 °F 53.6 °F 100% 30.06 in 10.0 mi NNE 3.5 mph - N/A   Overcast
2:18 PM 55.4 °F 53.6 °F 94% 30.05 in 10.0 mi North 4.6 mph - N/A   Overcast
2:37 PM 55.4 °F 53.6 °F 94% 30.05 in 10.0 mi Calm Calm - N/A   Overcast
2:57 PM 55.4 °F 53.6 °F 94% 30.05 in 10.0 mi Calm Calm - N/A   Overcast
3:16 PM 57.2 °F 53.6 °F 88% 30.05 in 10.0 mi North 3.5 mph - N/A   Overcast
3:37 PM 59.0 °F 55.4 °F 88% 30.04 in 10.0 mi Calm Calm - N/A   Overcast
3:57 PM 59.0 °F 55.4 °F 88% 30.04 in 10.0 mi NNE 4.6 mph - N/A   Overcast
4:16 PM 59.0 °F 55.4 °F 88% 30.04 in 10.0 mi Calm Calm - N/A   Overcast
4:37 PM 59.0 °F 55.4 °F 88% 30.03 in 10.0 mi Calm Calm - N/A   Overcast
4:57 PM 59.0 °F 55.4 °F 88% 30.04 in 10.0 mi Calm Calm - N/A   Overcast
5:16 PM 59.0 °F 55.4 °F 88% 30.05 in 10.0 mi Calm Calm - N/A   Overcast
5:37 PM 59.0 °F 55.4 °F 88% 30.05 in 10.0 mi Calm Calm - N/A   Overcast
5:57 PM 55.4 °F 55.4 °F 100% 30.05 in 10.0 mi Calm Calm - N/A   Overcast
6:17 PM 55.4 °F 53.6 °F 94% 30.05 in 10.0 mi North 3.5 mph - N/A   Overcast
6:37 PM 55.4 °F 53.6 °F 94% 30.05 in 10.0 mi Calm Calm - N/A   Overcast
6:46 PM 55.4 °F 53.6 °F 94% 30.05 in 10.0 mi Calm Calm - N/A   Overcast
7:17 PM 55.4 °F 55.4 °F 100% 30.05 in 10.0 mi Calm Calm - N/A   Overcast
7:18 PM 55.4 °F 55.4 °F 100% 30.05 in 10.0 mi Calm Calm - N/A   Overcast
8:17 PM 55.4 °F 55.4 °F 100% 30.05 in 10.0 mi NNW 3.5 mph - N/A   Overcast
8:37 PM 55.4 °F 55.4 °F 100% 30.05 in 10.0 mi North 3.5 mph - N/A   Overcast
9:17 PM 55.4 °F 55.4 °F 100% 30.05 in 7.0 mi North 4.6 mph - N/A   Overcast
9:37 PM 55.4 °F 55.4 °F 100% 30.06 in 7.0 mi Calm Calm - N/A Rain Rain
9:58 PM 53.6 °F 53.6 °F 100% 30.06 in 3.0 mi Calm Calm - N/A Rain Rain
10:17 PM 55.4 °F 55.4 °F 100% 30.07 in 4.0 mi Calm Calm - N/A Rain Rain
10:37 PM 53.6 °F 53.6 °F 100% 30.07 in 3.0 mi Calm Calm - N/A Rain Heavy Rain
10:57 PM 53.6 °F 53.6 °F 100% 30.07 in 3.0 mi North 3.5 mph - N/A Rain Heavy Rain
11:17 PM 53.6 °F 53.6 °F 100% 30.07 in 5.0 mi North 3.5 mph - N/A   Overcast
11:37 PM 53.6 °F 53.6 °F 100% 30.07 in 5.0 mi North 3.5 mph - N/A   Overcast
11:57 PM 53.6 °F 53.6 °F 100% 30.07 in 5.0 mi North 3.5 mph - N/A   Overcast